Time,TemperatureF,DewpointF,PressureIn,WindDirection,WindDirectionDegrees,WindSpeedMPH,WindSpeedGustMPH,Humidity,HourlyPrecipIn,Conditions,Clouds,dailyrainin,SoftwareType,DateUTC
2013-02-15 00:00:00,59.4,51.5,30.02,East,79,3.0,3.0,75,0.00,,,0.00,Wunderground v.1.15,2013-02-15 06:00:00,
2013-02-15 00:10:00,59.6,51.7,30.02,SE,130,3.0,8.0,75,0.00,,,0.00,Wunderground v.1.15,2013-02-15 06:10:00,
2013-02-15 00:15:00,59.8,51.9,30.02,SE,139,4.0,8.0,75,0.00,,,0.00,Wunderground v.1.15,2013-02-15 06:15:00,
2013-02-15 00:20:00,59.8,51.9,30.02,SSE,157,4.0,5.0,75,0.00,,,0.00,Wunderground v.1.15,2013-02-15 06:20:00,
2013-02-15 00:25:00,59.9,51.6,30.02,East,80,3.0,5.0,74,0.00,,,0.00,Wunderground v.1.15,2013-02-15 06:25:00,
2013-02-15 00:30:00,59.8,51.9,30.02,SE,130,3.0,3.0,75,0.00,,,0.00,Wunderground v.1.15,2013-02-15 06:30:00,
2013-02-15 00:35:00,59.8,51.9,30.02,ESE,120,3.0,4.0,75,0.00,,,0.00,Wunderground v.1.15,2013-02-15 06:35:00,
2013-02-15 00:45:00,59.6,51.7,30.02,SSE,166,2.0,4.0,75,0.00,,,0.00,Wunderground v.1.15,2013-02-15 06:45:00,
2013-02-15 00:50:00,59.5,51.6,30.02,SE,141,2.0,2.0,75,0.00,,,0.00,Wunderground v.1.15,2013-02-15 06:50:00,
2013-02-15 00:55:00,59.6,51.3,30.02,ESE,119,3.0,3.0,74,0.00,,,0.00,Wunderground v.1.15,2013-02-15 06:55:00,
2013-02-15 01:00:00,59.5,51.6,30.02,SE,132,3.0,3.0,75,0.00,,,0.00,Wunderground v.1.15,2013-02-15 07:00:00,
2013-02-15 01:10:00,59.6,51.7,30.02,ESE,108,3.0,3.0,75,0.00,,,0.00,Wunderground v.1.15,2013-02-15 07:10:00,
2013-02-15 01:15:00,59.5,51.9,30.02,ESE,120,2.0,5.0,76,0.00,,,0.00,Wunderground v.1.15,2013-02-15 07:15:00,
2013-02-15 01:20:00,59.5,51.9,30.02,SE,133,2.0,3.0,76,0.00,,,0.00,Wunderground v.1.15,2013-02-15 07:20:00,
2013-02-15 01:25:00,59.6,52.0,30.02,SE,129,2.0,3.0,76,0.00,,,0.00,Wunderground v.1.15,2013-02-15 07:25:00,
2013-02-15 01:30:00,59.7,51.8,30.02,ESE,108,3.0,3.0,75,0.00,,,0.00,Wunderground v.1.15,2013-02-15 07:30:00,
2013-02-15 01:35:00,59.9,51.6,30.03,ENE,77,3.0,3.0,74,0.00,,,0.00,Wunderground v.1.15,2013-02-15 07:35:00,
2013-02-15 01:40:00,60.0,51.7,30.03,East,94,3.0,3.0,74,0.00,,,0.00,Wunderground v.1.15,2013-02-15 07:40:00,
2013-02-15 01:50:00,60.2,51.9,30.03,SE,131,3.0,3.0,74,0.00,,,0.00,Wunderground v.1.15,2013-02-15 07:50:00,
2013-02-15 01:55:00,60.1,51.8,30.04,ESE,106,3.0,4.0,74,0.00,,,0.00,Wunderground v.1.15,2013-02-15 07:55:00,
2013-02-15 02:00:00,60.1,51.8,30.04,SE,127,3.0,3.0,74,0.00,,,0.00,Wunderground v.1.15,2013-02-15 08:00:00,
2013-02-15 02:10:00,60.4,51.7,30.04,ENE,77,4.0,4.0,73,0.00,,,0.00,Wunderground v.1.15,2013-02-15 08:10:00,
2013-02-15 02:15:00,60.3,52.0,30.04,ESE,120,3.0,4.0,74,0.00,,,0.00,Wunderground v.1.15,2013-02-15 08:15:00,
2013-02-15 02:20:00,60.4,52.1,30.03,East,96,4.0,5.0,74,0.00,,,0.00,Wunderground v.1.15,2013-02-15 08:20:00,
2013-02-15 02:25:00,60.4,52.1,30.03,ESE,113,4.0,5.0,74,0.00,,,0.00,Wunderground v.1.15,2013-02-15 08:25:00,
2013-02-15 02:30:00,60.3,52.3,30.03,ESE,108,3.0,3.0,75,0.00,,,0.00,Wunderground v.1.15,2013-02-15 08:30:00,
2013-02-15 02:35:00,60.4,52.4,30.03,ESE,112,3.0,3.0,75,0.00,,,0.00,Wunderground v.1.15,2013-02-15 08:35:00,
2013-02-15 02:40:00,60.4,52.8,30.03,ESE,110,3.0,3.0,76,0.00,,,0.00,Wunderground v.1.15,2013-02-15 08:40:00,
2013-02-15 02:45:00,60.4,52.8,30.03,East,99,2.0,3.0,76,0.00,,,0.00,Wunderground v.1.15,2013-02-15 08:45:00,
2013-02-15 02:55:00,60.0,52.4,30.04,SSE,151,1.0,2.0,76,0.00,,,0.00,Wunderground v.1.15,2013-02-15 08:55:00,
2013-02-15 03:00:00,59.7,52.5,30.03,SE,127,1.0,3.0,77,0.00,,,0.00,Wunderground v.1.15,2013-02-15 09:00:00,
2013-02-15 03:10:00,59.3,52.4,30.04,ESE,114,1.0,1.0,78,0.00,,,0.00,Wunderground v.1.15,2013-02-15 09:10:00,
2013-02-15 03:15:00,59.1,52.2,30.03,ESE,108,1.0,2.0,78,0.00,,,0.00,Wunderground v.1.15,2013-02-15 09:15:00,
2013-02-15 03:20:00,59.2,52.3,30.03,ESE,116,2.0,3.0,78,0.00,,,0.00,Wunderground v.1.15,2013-02-15 09:20:00,
2013-02-15 03:25:00,59.4,52.5,30.03,ESE,123,2.0,3.0,78,0.00,,,0.00,Wunderground v.1.15,2013-02-15 09:25:00,
2013-02-15 03:35:00,59.4,52.5,30.03,East,82,1.0,2.0,78,0.00,,,0.00,Wunderground v.1.15,2013-02-15 09:35:00,
2013-02-15 03:40:00,59.6,52.4,30.03,ESE,108,2.0,2.0,77,0.00,,,0.00,Wunderground v.1.15,2013-02-15 09:40:00,
2013-02-15 03:45:00,59.8,52.6,30.04,SE,134,2.0,2.0,77,0.00,,,0.00,Wunderground v.1.15,2013-02-15 09:45:00,
2013-02-15 03:50:00,60.0,52.8,30.04,ESE,110,2.0,2.0,77,0.00,,,0.00,Wunderground v.1.15,2013-02-15 09:50:00,
2013-02-15 03:55:00,60.1,52.9,30.04,ESE,108,3.0,3.0,77,0.00,,,0.00,Wunderground v.1.15,2013-02-15 09:55:00,
2013-02-15 04:00:00,60.2,52.2,30.04,East,94,3.0,3.0,75,0.00,,,0.00,Wunderground v.1.15,2013-02-15 10:00:00,
2013-02-15 04:10:00,60.3,52.7,30.04,ESE,108,2.0,4.0,76,0.00,,,0.00,Wunderground v.1.15,2013-02-15 10:10:00,
2013-02-15 04:15:00,60.3,52.7,30.04,ESE,108,2.0,4.0,76,0.00,,,0.00,Wunderground v.1.15,2013-02-15 10:15:00,
2013-02-15 04:20:00,60.4,52.8,30.04,ESE,105,3.0,4.0,76,0.00,,,0.00,Wunderground v.1.15,2013-02-15 10:20:00,
2013-02-15 04:25:00,60.5,52.9,30.04,East,88,3.0,4.0,76,0.00,,,0.00,Wunderground v.1.15,2013-02-15 10:25:00,
2013-02-15 04:35:00,60.6,52.6,30.04,ENE,61,3.0,4.0,75,0.00,,,0.00,Wunderground v.1.15,2013-02-15 10:35:00,
2013-02-15 04:40:00,60.8,52.8,30.04,ENE,68,4.0,4.0,75,0.00,,,0.00,Wunderground v.1.15,2013-02-15 10:40:00,
2013-02-15 04:45:00,60.8,52.5,30.04,East,96,5.0,7.0,74,0.00,,,0.00,Wunderground v.1.15,2013-02-15 10:45:00,
2013-02-15 04:50:00,61.0,52.7,30.04,ENE,68,5.0,5.0,74,0.00,,,0.00,Wunderground v.1.15,2013-02-15 10:50:00,
2013-02-15 04:55:00,61.0,52.7,30.04,ENE,67,4.0,6.0,74,0.00,,,0.00,Wunderground v.1.15,2013-02-15 10:55:00,
2013-02-15 05:00:00,60.9,52.9,30.04,East,82,4.0,8.0,75,0.00,,,0.00,Wunderground v.1.15,2013-02-15 11:00:00,
2013-02-15 05:10:00,61.0,53.0,30.04,ENE,68,5.0,5.0,75,0.00,,,0.00,Wunderground v.1.15,2013-02-15 11:10:00,
2013-02-15 05:15:00,61.0,53.0,30.04,East,99,5.0,6.0,75,0.00,,,0.00,Wunderground v.1.15,2013-02-15 11:15:00,
2013-02-15 06:50:00,60.4,53.5,30.07,ENE,77,2.0,2.0,78,0.00,,,0.00,Wunderground v.1.15,2013-02-15 12:50:00,
2013-02-15 06:55:00,60.3,53.4,30.07,East,88,2.0,2.0,78,0.00,,,0.00,Wunderground v.1.15,2013-02-15 12:55:00,
2013-02-15 07:00:00,60.2,53.3,30.08,SE,131,1.0,1.0,78,0.00,,,0.00,Wunderground v.1.15,2013-02-15 13:00:00,
2013-02-15 07:10:00,58.4,51.9,30.08,SW,225,0.0,0.0,79,0.00,,,0.00,Wunderground v.1.15,2013-02-15 13:10:00,
2013-02-15 07:15:00,57.1,51.0,30.08,WSW,255,0.0,0.0,80,0.00,,,0.00,Wunderground v.1.15,2013-02-15 13:15:00,
2013-02-15 07:25:00,55.4,50.0,30.08,West,270,0.0,0.0,82,0.00,,,0.00,Wunderground v.1.15,2013-02-15 13:25:00,
2013-02-15 07:30:00,55.0,49.9,30.08,West,270,0.0,0.0,83,0.00,,,0.00,Wunderground v.1.15,2013-02-15 13:30:00,
2013-02-15 07:35:00,54.9,49.8,30.09,West,267,0.0,0.0,83,0.00,,,0.00,Wunderground v.1.15,2013-02-15 13:35:00,
2013-02-15 07:40:00,54.9,50.2,30.09,West,267,0.0,0.0,84,0.00,,,0.00,Wunderground v.1.15,2013-02-15 13:40:00,
2013-02-15 07:45:00,55.1,50.4,30.09,West,267,0.0,0.0,84,0.00,,,0.00,Wunderground v.1.15,2013-02-15 13:45:00,
2013-02-15 07:55:00,55.6,50.5,30.10,West,268,0.0,0.0,83,0.00,,,0.00,Wunderground v.1.15,2013-02-15 13:55:00,
2013-02-15 08:00:00,56.0,50.9,30.10,West,267,0.0,0.0,83,0.00,,,0.00,Wunderground v.1.15,2013-02-15 14:00:00,
2013-02-15 08:10:00,57.0,51.6,30.10,West,267,0.0,0.0,82,0.00,,,0.00,Wunderground v.1.15,2013-02-15 14:10:00,
2013-02-15 08:15:00,57.5,51.7,30.10,West,267,0.0,1.0,81,0.00,,,0.00,Wunderground v.1.15,2013-02-15 14:15:00,
2013-02-15 08:20:00,58.2,52.1,30.11,West,267,0.0,0.0,80,0.00,,,0.00,Wunderground v.1.15,2013-02-15 14:20:00,
2013-02-15 08:30:00,59.5,53.0,30.11,West,281,0.0,0.0,79,0.00,,,0.00,Wunderground v.1.15,2013-02-15 14:30:00,
2013-02-15 08:35:00,60.2,53.3,30.12,West,281,0.0,0.0,78,0.00,,,0.00,Wunderground v.1.15,2013-02-15 14:35:00,
2013-02-15 08:40:00,60.8,53.5,30.12,West,269,0.0,0.0,77,0.00,,,0.00,Wunderground v.1.15,2013-02-15 14:40:00,
2013-02-15 08:45:00,61.5,53.9,30.12,West,268,0.0,0.0,76,0.00,,,0.00,Wunderground v.1.15,2013-02-15 14:45:00,
2013-02-15 08:50:00,62.2,54.5,30.12,NNW,327,0.0,0.0,76,0.00,,,0.00,Wunderground v.1.15,2013-02-15 14:50:00,
2013-02-15 09:00:00,62.8,54.0,30.13,West,274,1.0,1.0,73,0.00,,,0.00,Wunderground v.1.15,2013-02-15 15:00:00,
2013-02-15 09:10:00,63.7,54.5,30.12,West,262,0.0,0.0,72,0.00,,,0.00,Wunderground v.1.15,2013-02-15 15:10:00,
2013-02-15 09:15:00,64.2,54.6,30.13,West,263,0.0,0.0,71,0.00,,,0.00,Wunderground v.1.15,2013-02-15 15:15:00,
2013-02-15 09:20:00,64.8,54.8,30.13,ENE,58,0.0,1.0,70,0.00,,,0.00,Wunderground v.1.15,2013-02-15 15:20:00,
2013-02-15 09:25:00,65.1,54.7,30.13,East,98,0.0,1.0,69,0.00,,,0.00,Wunderground v.1.15,2013-02-15 15:25:00,
2013-02-15 09:35:00,65.3,54.1,30.13,East,81,1.0,3.0,67,0.00,,,0.00,Wunderground v.1.15,2013-02-15 15:35:00,
2013-02-15 09:40:00,65.1,54.7,30.13,ENE,58,3.0,3.0,69,0.00,,,0.00,Wunderground v.1.15,2013-02-15 15:40:00,
2013-02-15 09:45:00,65.4,55.0,30.13,ENE,64,2.0,3.0,69,0.00,,,0.00,Wunderground v.1.15,2013-02-15 15:45:00,
2013-02-15 09:50:00,65.3,55.3,30.13,NE,36,1.0,2.0,70,0.00,,,0.00,Wunderground v.1.15,2013-02-15 15:50:00,
2013-02-15 09:55:00,65.6,55.2,30.13,NE,51,1.0,2.0,69,0.00,,,0.00,Wunderground v.1.15,2013-02-15 15:55:00,
2013-02-15 10:00:00,65.4,55.0,30.14,NE,41,1.0,2.0,69,0.00,,,0.00,Wunderground v.1.15,2013-02-15 16:00:00,
2013-02-15 10:10:00,65.1,55.1,30.14,NNE,27,2.0,2.0,70,0.00,,,0.00,Wunderground v.1.15,2013-02-15 16:10:00,
2013-02-15 10:15:00,64.7,55.1,30.14,ENE,71,3.0,3.0,71,0.00,,,0.00,Wunderground v.1.15,2013-02-15 16:15:00,
2013-02-15 10:20:00,64.7,55.1,30.14,NE,34,3.0,3.0,71,0.00,,,0.00,Wunderground v.1.15,2013-02-15 16:20:00,
2013-02-15 10:25:00,64.7,55.5,30.15,NE,41,3.0,3.0,72,0.00,,,0.00,Wunderground v.1.15,2013-02-15 16:25:00,
2013-02-15 10:30:00,64.6,55.4,30.15,NNE,26,3.0,3.0,72,0.00,,,0.00,Wunderground v.1.15,2013-02-15 16:30:00,
2013-02-15 10:40:00,65.0,56.1,30.14,NW,311,3.0,3.0,73,0.00,,,0.00,Wunderground v.1.15,2013-02-15 16:40:00,
2013-02-15 10:45:00,65.2,55.6,30.14,NNE,33,2.0,3.0,71,0.00,,,0.00,Wunderground v.1.15,2013-02-15 16:45:00,
2013-02-15 10:50:00,65.1,55.8,30.15,NE,46,2.0,2.0,72,0.00,,,0.00,Wunderground v.1.15,2013-02-15 16:50:00,
2013-02-15 10:55:00,65.9,56.6,30.14,East,84,2.0,4.0,72,0.00,,,0.00,Wunderground v.1.15,2013-02-15 16:55:00,
2013-02-15 11:00:00,66.0,55.9,30.14,NE,47,2.0,2.0,70,0.00,,,0.00,Wunderground v.1.15,2013-02-15 17:00:00,
2013-02-15 11:10:00,66.1,56.4,30.15,ENE,65,2.0,2.0,71,0.00,,,0.00,Wunderground v.1.15,2013-02-15 17:10:00,
2013-02-15 11:15:00,65.8,56.1,30.15,NE,51,3.0,3.0,71,0.00,,,0.00,Wunderground v.1.15,2013-02-15 17:15:00,
2013-02-15 11:20:00,65.8,56.1,30.15,East,85,3.0,3.0,71,0.00,,,0.00,Wunderground v.1.15,2013-02-15 17:20:00,
2013-02-15 11:25:00,66.2,56.1,30.15,NNE,33,3.0,4.0,70,0.00,,,0.00,Wunderground v.1.15,2013-02-15 17:25:00,
2013-02-15 11:30:00,66.4,55.9,30.14,NNE,25,3.0,3.0,69,0.00,,,0.00,Wunderground v.1.15,2013-02-15 17:30:00,
2013-02-15 11:35:00,66.4,56.3,30.14,NNE,32,3.0,5.0,70,0.00,,,0.00,Wunderground v.1.15,2013-02-15 17:35:00,
2013-02-15 11:45:00,66.1,55.2,30.14,ENE,60,4.0,4.0,68,0.00,,,0.00,Wunderground v.1.15,2013-02-15 17:45:00,
2013-02-15 11:50:00,66.4,55.5,30.13,NE,49,4.0,4.0,68,0.00,,,0.00,Wunderground v.1.15,2013-02-15 17:50:00,
2013-02-15 11:55:00,66.4,53.8,30.13,NE,50,6.0,6.0,64,0.00,,,0.00,Wunderground v.1.15,2013-02-15 17:55:00,
2013-02-15 12:00:00,66.9,54.3,30.13,NE,48,6.0,10.0,64,0.00,,,0.00,Wunderground v.1.15,2013-02-15 18:00:00,
2013-02-15 12:10:00,66.4,53.8,30.14,ENE,68,7.0,7.0,64,0.00,,,0.00,Wunderground v.1.15,2013-02-15 18:10:00,
2013-02-15 12:15:00,66.7,54.6,30.13,East,91,7.0,7.0,65,0.00,,,0.00,Wunderground v.1.15,2013-02-15 18:15:00,
2013-02-15 12:20:00,66.6,54.0,30.13,ENE,73,7.0,7.0,64,0.00,,,0.00,Wunderground v.1.15,2013-02-15 18:20:00,
2013-02-15 12:25:00,66.6,53.6,30.13,NE,51,7.0,7.0,63,0.00,,,0.00,Wunderground v.1.15,2013-02-15 18:25:00,
2013-02-15 12:30:00,67.1,54.5,30.13,ENE,77,6.0,7.0,64,0.00,,,0.00,Wunderground v.1.15,2013-02-15 18:30:00,
2013-02-15 12:35:00,67.4,53.5,30.13,East,86,6.0,7.0,61,0.00,,,0.00,Wunderground v.1.15,2013-02-15 18:35:00,
2013-02-15 12:40:00,67.3,54.3,30.13,NNE,29,6.0,6.0,63,0.00,,,0.00,Wunderground v.1.15,2013-02-15 18:40:00,
2013-02-15 12:50:00,67.0,54.0,30.12,ENE,63,7.0,7.0,63,0.00,,,0.00,Wunderground v.1.15,2013-02-15 18:50:00,
2013-02-15 12:55:00,67.2,55.0,30.12,East,86,8.0,10.0,65,0.00,,,0.00,Wunderground v.1.15,2013-02-15 18:55:00,
2013-02-15 13:00:00,67.8,56.4,30.12,ENE,69,7.0,7.0,67,0.00,,,0.00,Wunderground v.1.15,2013-02-15 19:00:00,
2013-02-15 13:10:00,67.6,55.8,30.11,NE,56,7.0,10.0,66,0.00,,,0.00,Wunderground v.1.15,2013-02-15 19:10:00,
2013-02-15 13:15:00,67.3,55.5,30.11,ENE,75,8.0,10.0,66,0.00,,,0.00,Wunderground v.1.15,2013-02-15 19:15:00,
2013-02-15 13:20:00,66.8,55.1,30.11,East,90,9.0,15.0,66,0.00,,,0.00,Wunderground v.1.15,2013-02-15 19:20:00,
2013-02-15 13:25:00,66.7,55.4,30.11,East,89,9.0,15.0,67,0.00,,,0.00,Wunderground v.1.15,2013-02-15 19:25:00,
2013-02-15 13:30:00,66.6,55.7,30.11,East,96,9.0,9.0,68,0.00,,,0.00,Wunderground v.1.15,2013-02-15 19:30:00,
2013-02-15 13:35:00,66.8,55.1,30.11,East,96,8.0,9.0,66,0.00,,,0.00,Wunderground v.1.15,2013-02-15 19:35:00,
2013-02-15 13:40:00,67.1,55.8,30.11,ENE,71,6.0,7.0,67,0.00,,,0.00,Wunderground v.1.15,2013-02-15 19:40:00,
2013-02-15 13:45:00,66.4,55.1,30.10,East,90,8.0,8.0,67,0.00,,,0.00,Wunderground v.1.15,2013-02-15 19:45:00,
2013-02-15 13:55:00,66.7,55.4,30.10,East,93,7.0,11.0,67,0.00,,,0.00,Wunderground v.1.15,2013-02-15 19:55:00,
2013-02-15 14:00:00,66.6,55.3,30.10,NE,56,8.0,8.0,67,0.00,,,0.00,Wunderground v.1.15,2013-02-15 20:00:00,
2013-02-15 14:10:00,66.1,54.8,30.09,East,90,10.0,11.0,67,0.00,,,0.00,Wunderground v.1.15,2013-02-15 20:10:00,
2013-02-15 14:15:00,66.0,54.3,30.09,ENE,76,9.0,11.0,66,0.00,,,0.00,Wunderground v.1.15,2013-02-15 20:15:00,
2013-02-15 14:20:00,66.0,55.1,30.09,ENE,57,9.0,9.0,68,0.00,,,0.00,Wunderground v.1.15,2013-02-15 20:20:00,
2013-02-15 14:25:00,66.2,54.5,30.09,ESE,107,9.0,9.0,66,0.00,,,0.00,Wunderground v.1.15,2013-02-15 20:25:00,
2013-02-15 14:30:00,66.1,54.8,30.09,East,84,9.0,9.0,67,0.00,,,0.00,Wunderground v.1.15,2013-02-15 20:30:00,
2013-02-15 14:35:00,65.9,54.6,30.09,East,91,9.0,9.0,67,0.00,,,0.00,Wunderground v.1.15,2013-02-15 20:35:00,
2013-02-15 14:40:00,65.8,54.9,30.09,ENE,70,9.0,13.0,68,0.00,,,0.00,Wunderground v.1.15,2013-02-15 20:40:00,
2013-02-15 14:45:00,65.9,54.6,30.09,East,99,9.0,13.0,67,0.00,,,0.00,Wunderground v.1.15,2013-02-15 20:45:00,
2013-02-15 14:50:00,66.4,55.5,30.09,ENE,70,8.0,8.0,68,0.00,,,0.00,Wunderground v.1.15,2013-02-15 20:50:00,
2013-02-15 15:00:00,66.3,55.0,30.09,ESE,119,8.0,12.0,67,0.00,,,0.00,Wunderground v.1.15,2013-02-15 21:00:00,
2013-02-15 15:10:00,66.0,54.7,30.09,East,86,9.0,9.0,67,0.00,,,0.00,Wunderground v.1.15,2013-02-15 21:10:00,
2013-02-15 15:15:00,66.5,55.2,30.09,ESE,113,7.0,9.0,67,0.00,,,0.00,Wunderground v.1.15,2013-02-15 21:15:00,
2013-02-15 15:20:00,66.2,55.7,30.09,ENE,64,7.0,8.0,69,0.00,,,0.00,Wunderground v.1.15,2013-02-15 21:20:00,
2013-02-15 15:25:00,65.9,54.6,30.09,East,91,9.0,9.0,67,0.00,,,0.00,Wunderground v.1.15,2013-02-15 21:25:00,
2013-02-15 15:30:00,66.4,55.5,30.09,East,92,8.0,8.0,68,0.00,,,0.00,Wunderground v.1.15,2013-02-15 21:30:00,
2013-02-15 15:35:00,66.1,54.8,30.09,East,91,8.0,8.0,67,0.00,,,0.00,Wunderground v.1.15,2013-02-15 21:35:00,
2013-02-15 15:40:00,66.1,54.8,30.08,East,79,8.0,8.0,67,0.00,,,0.00,Wunderground v.1.15,2013-02-15 21:40:00,
2013-02-15 15:45:00,66.6,55.3,30.09,ESE,118,7.0,8.0,67,0.00,,,0.00,Wunderground v.1.15,2013-02-15 21:45:00,
2013-02-15 15:50:00,66.4,54.7,30.08,East,98,6.0,11.0,66,0.00,,,0.00,Wunderground v.1.15,2013-02-15 21:50:00,
2013-02-15 15:55:00,65.8,54.5,30.08,ESE,111,8.0,11.0,67,0.00,,,0.00,Wunderground v.1.15,2013-02-15 21:55:00,
2013-02-15 16:00:00,65.4,54.2,30.08,East,87,9.0,9.0,67,0.00,,,0.00,Wunderground v.1.15,2013-02-15 22:00:00,
2013-02-15 16:10:00,65.4,53.3,30.08,East,86,8.0,8.0,65,0.00,,,0.00,Wunderground v.1.15,2013-02-15 22:10:00,
2013-02-15 16:15:00,65.5,54.2,30.08,East,88,8.0,8.0,67,0.00,,,0.00,Wunderground v.1.15,2013-02-15 22:15:00,
2013-02-15 16:20:00,65.2,54.0,30.09,ENE,65,8.0,8.0,67,0.00,,,0.00,Wunderground v.1.15,2013-02-15 22:20:00,
2013-02-15 16:25:00,65.2,54.0,30.09,East,101,8.0,8.0,67,0.00,,,0.00,Wunderground v.1.15,2013-02-15 22:25:00,
2013-02-15 16:30:00,64.9,53.7,30.09,East,96,8.0,8.0,67,0.00,,,0.00,Wunderground v.1.15,2013-02-15 22:30:00,
2013-02-15 16:35:00,64.7,53.5,30.09,ENE,74,9.0,9.0,67,0.00,,,0.00,Wunderground v.1.15,2013-02-15 22:35:00,
2013-02-15 16:40:00,64.6,52.6,30.09,ENE,77,9.0,9.0,65,0.00,,,0.00,Wunderground v.1.15,2013-02-15 22:40:00,
2013-02-15 16:50:00,64.7,52.7,30.09,East,95,7.0,11.0,65,0.00,,,0.00,Wunderground v.1.15,2013-02-15 22:50:00,
2013-02-15 16:55:00,64.5,50.7,30.09,East,93,8.0,12.0,61,0.00,,,0.00,Wunderground v.1.15,2013-02-15 22:55:00,
2013-02-15 17:00:00,64.3,50.6,30.10,East,101,9.0,9.0,61,0.00,,,0.00,Wunderground v.1.15,2013-02-15 23:00:00,
2013-02-15 17:10:00,64.3,49.2,30.10,ENE,68,7.0,8.0,58,0.00,,,0.00,Wunderground v.1.15,2013-02-15 23:10:00,
2013-02-15 17:15:00,64.2,47.2,30.10,ESE,115,7.0,8.0,54,0.00,,,0.00,Wunderground v.1.15,2013-02-15 23:15:00,
2013-02-15 17:20:00,64.2,46.2,30.10,ESE,117,7.0,7.0,52,0.00,,,0.00,Wunderground v.1.15,2013-02-15 23:20:00,
2013-02-15 17:25:00,64.3,45.8,30.10,East,86,7.0,8.0,51,0.00,,,0.00,Wunderground v.1.15,2013-02-15 23:25:00,
2013-02-15 17:30:00,64.4,45.9,30.10,ENE,64,7.0,7.0,51,0.00,,,0.00,Wunderground v.1.15,2013-02-15 23:30:00,
2013-02-15 17:35:00,64.3,45.3,30.10,East,79,7.0,7.0,50,0.00,,,0.00,Wunderground v.1.15,2013-02-15 23:35:00,
2013-02-15 17:45:00,63.9,45.4,30.10,ESE,110,7.0,7.0,51,0.00,,,0.00,Wunderground v.1.15,2013-02-15 23:45:00,
2013-02-15 17:50:00,63.7,45.2,30.10,East,91,7.0,7.0,51,0.00,,,0.00,Wunderground v.1.15,2013-02-15 23:50:00,
2013-02-15 17:55:00,63.5,46.1,30.10,East,98,7.0,7.0,53,0.00,,,0.00,Wunderground v.1.15,2013-02-15 23:55:00,
2013-02-15 18:00:00,63.3,46.4,30.10,East,86,6.0,6.0,54,0.00,,,0.00,Wunderground v.1.15,2013-02-16 00:00:00,
2013-02-15 18:10:00,63.2,44.2,30.10,East,89,7.0,10.0,50,0.00,,,0.00,Wunderground v.1.15,2013-02-16 00:10:00,
2013-02-15 18:15:00,63.1,44.2,30.11,SE,137,7.0,10.0,50,0.00,,,0.00,Wunderground v.1.15,2013-02-16 00:15:00,
2013-02-15 18:20:00,63.0,45.6,30.11,East,99,6.0,6.0,53,0.00,,,0.00,Wunderground v.1.15,2013-02-16 00:20:00,
2013-02-15 18:25:00,62.9,45.5,30.11,East,83,6.0,6.0,53,0.00,,,0.00,Wunderground v.1.15,2013-02-16 00:25:00,
2013-02-15 18:30:00,62.8,46.4,30.11,ESE,110,6.0,6.0,55,0.00,,,0.00,Wunderground v.1.15,2013-02-16 00:30:00,
2013-02-15 18:35:00,62.7,46.8,30.12,ENE,78,6.0,6.0,56,0.00,,,0.00,Wunderground v.1.15,2013-02-16 00:35:00,
2013-02-15 18:40:00,62.5,47.5,30.12,ESE,107,6.0,7.0,58,0.00,,,0.00,Wunderground v.1.15,2013-02-16 00:40:00,
2013-02-15 18:50:00,62.2,47.7,30.12,NE,49,5.0,5.0,59,0.00,,,0.00,Wunderground v.1.15,2013-02-16 00:50:00,
2013-02-15 18:55:00,62.2,47.2,30.12,ESE,119,6.0,6.0,58,0.00,,,0.00,Wunderground v.1.15,2013-02-16 00:55:00,
2013-02-15 19:00:00,62.2,47.7,30.13,ENE,70,6.0,6.0,59,0.00,,,0.00,Wunderground v.1.15,2013-02-16 01:00:00,
2013-02-15 19:10:00,62.0,48.0,30.13,ENE,64,7.0,7.0,60,0.00,,,0.00,Wunderground v.1.15,2013-02-16 01:10:00,
2013-02-15 19:20:00,62.0,48.8,30.13,ESE,103,6.0,6.0,62,0.00,,,0.00,Wunderground v.1.15,2013-02-16 01:20:00,
2013-02-15 19:25:00,61.9,48.7,30.14,ENE,72,6.0,6.0,62,0.00,,,0.00,Wunderground v.1.15,2013-02-16 01:25:00,
2013-02-15 19:30:00,61.9,49.6,30.14,East,99,5.0,5.0,64,0.00,,,0.00,Wunderground v.1.15,2013-02-16 01:30:00,
2013-02-15 19:35:00,61.8,49.5,30.14,East,80,4.0,5.0,64,0.00,,,0.00,Wunderground v.1.15,2013-02-16 01:35:00,
2013-02-15 19:40:00,61.8,49.5,30.14,East,96,5.0,7.0,64,0.00,,,0.00,Wunderground v.1.15,2013-02-16 01:40:00,
2013-02-15 19:45:00,61.8,49.9,30.15,ESE,110,5.0,7.0,65,0.00,,,0.00,Wunderground v.1.15,2013-02-16 01:45:00,
2013-02-15 19:55:00,61.9,50.0,30.15,East,94,6.0,6.0,65,0.00,,,0.00,Wunderground v.1.15,2013-02-16 01:55:00,
2013-02-15 20:00:00,61.8,49.9,30.15,East,82,5.0,5.0,65,0.00,,,0.00,Wunderground v.1.15,2013-02-16 02:00:00,
2013-02-15 20:10:00,61.8,50.3,30.16,ENE,70,5.0,5.0,66,0.00,,,0.00,Wunderground v.1.15,2013-02-16 02:10:00,
2013-02-15 20:15:00,61.8,50.3,30.16,NE,49,5.0,7.0,66,0.00,,,0.00,Wunderground v.1.15,2013-02-16 02:15:00,
2013-02-15 20:25:00,61.8,49.9,30.16,East,83,4.0,4.0,65,0.00,,,0.00,Wunderground v.1.15,2013-02-16 02:25:00,
2013-02-15 20:30:00,61.8,49.5,30.17,ENE,74,5.0,5.0,64,0.00,,,0.00,Wunderground v.1.15,2013-02-16 02:30:00,
2013-02-15 20:35:00,61.9,49.6,30.17,ENE,75,5.0,5.0,64,0.00,,,0.00,Wunderground v.1.15,2013-02-16 02:35:00,
2013-02-15 20:40:00,61.9,49.6,30.17,ENE,70,4.0,4.0,64,0.00,,,0.00,Wunderground v.1.15,2013-02-16 02:40:00,
2013-02-15 20:45:00,61.9,49.6,30.18,East,79,3.0,4.0,64,0.00,,,0.00,Wunderground v.1.15,2013-02-16 02:45:00,
2013-02-15 20:50:00,61.9,49.6,30.18,ENE,76,3.0,3.0,64,0.00,,,0.00,Wunderground v.1.15,2013-02-16 02:50:00,
2013-02-15 21:00:00,62.1,49.8,30.18,ESE,108,4.0,7.0,64,0.00,,,0.00,Wunderground v.1.15,2013-02-16 03:00:00,
2013-02-15 21:10:00,62.4,48.8,30.18,ENE,70,4.0,4.0,61,0.00,,,0.00,Wunderground v.1.15,2013-02-16 03:10:00,
2013-02-15 21:15:00,62.5,48.9,30.19,ENE,65,4.0,5.0,61,0.00,,,0.00,Wunderground v.1.15,2013-02-16 03:15:00,
2013-02-15 21:20:00,62.5,48.9,30.19,ENE,72,4.0,5.0,61,0.00,,,0.00,Wunderground v.1.15,2013-02-16 03:20:00,
2013-02-15 21:30:00,62.5,49.3,30.19,ESE,106,4.0,4.0,62,0.00,,,0.00,Wunderground v.1.15,2013-02-16 03:30:00,
2013-02-15 21:35:00,62.5,49.3,30.19,East,79,4.0,4.0,62,0.00,,,0.00,Wunderground v.1.15,2013-02-16 03:35:00,
2013-02-15 21:40:00,62.5,49.7,30.20,East,91,3.0,6.0,63,0.00,,,0.00,Wunderground v.1.15,2013-02-16 03:40:00,
2013-02-15 21:45:00,62.5,49.3,30.20,East,96,3.0,6.0,62,0.00,,,0.00,Wunderground v.1.15,2013-02-16 03:45:00,
2013-02-15 21:50:00,62.4,49.6,30.20,ENE,77,2.0,3.0,63,0.00,,,0.00,Wunderground v.1.15,2013-02-16 03:50:00,
2013-02-15 21:55:00,62.5,50.2,30.21,East,91,2.0,3.0,64,0.00,,,0.00,Wunderground v.1.15,2013-02-16 03:55:00,
2013-02-15 22:00:00,62.4,50.1,30.21,ENE,75,2.0,2.0,64,0.00,,,0.00,Wunderground v.1.15,2013-02-16 04:00:00,
2013-02-15 22:10:00,62.4,50.1,30.22,NE,50,2.0,3.0,64,0.00,,,0.00,Wunderground v.1.15,2013-02-16 04:10:00,
2013-02-15 22:15:00,62.5,47.5,30.22,NNE,22,5.0,5.0,58,0.00,,,0.00,Wunderground v.1.15,2013-02-16 04:15:00,
2013-02-15 22:20:00,62.6,49.8,30.23,NNW,343,5.0,5.0,63,0.00,,,0.00,Wunderground v.1.15,2013-02-16 04:20:00,
2013-02-15 22:25:00,61.1,48.8,30.24,NNE,32,5.0,5.0,64,0.00,,,0.00,Wunderground v.1.15,2013-02-16 04:25:00,
2013-02-15 22:35:00,59.0,47.2,30.24,NE,42,6.0,7.0,65,0.00,,,0.00,Wunderground v.1.15,2013-02-16 04:35:00,
2013-02-15 22:40:00,58.4,46.7,30.25,North,4,6.0,6.0,65,0.00,,,0.00,Wunderground v.1.15,2013-02-16 04:40:00,
2013-02-15 22:45:00,58.0,46.3,30.25,NNW,335,6.0,6.0,65,0.00,,,0.00,Wunderground v.1.15,2013-02-16 04:45:00,
2013-02-15 22:50:00,57.7,46.4,30.25,ENE,75,6.0,6.0,66,0.00,,,0.00,Wunderground v.1.15,2013-02-16 04:50:00,
2013-02-15 22:55:00,57.3,46.0,30.26,North,352,6.0,7.0,66,0.00,,,0.00,Wunderground v.1.15,2013-02-16 04:55:00,
2013-02-15 23:00:00,57.1,45.8,30.26,NNE,22,7.0,7.0,66,0.00,,,0.00,Wunderground v.1.15,2013-02-16 05:00:00,
2013-02-15 23:05:00,57.0,45.7,30.26,North,352,7.0,7.0,66,0.00,,,0.00,Wunderground v.1.15,2013-02-16 05:05:00,
2013-02-15 23:10:00,56.8,46.0,30.26,NNE,15,7.0,7.0,67,0.00,,,0.00,Wunderground v.1.15,2013-02-16 05:10:00,
2013-02-15 23:15:00,56.7,45.9,30.27,North,9,8.0,8.0,67,0.00,,,0.00,Wunderground v.1.15,2013-02-16 05:15:00,
2013-02-15 23:20:00,56.5,45.7,30.27,NNE,19,7.0,7.0,67,0.00,,,0.00,Wunderground v.1.15,2013-02-16 05:20:00,
2013-02-15 23:25:00,56.4,46.0,30.27,NNW,347,7.0,7.0,68,0.00,,,0.00,Wunderground v.1.15,2013-02-16 05:25:00,
2013-02-15 23:30:00,56.2,45.8,30.27,NNE,26,7.0,7.0,68,0.00,,,0.00,Wunderground v.1.15,2013-02-16 05:30:00,
2013-02-15 23:40:00,56.1,44.9,30.27,NNE,27,6.0,6.0,66,0.00,,,0.00,Wunderground v.1.15,2013-02-16 05:40:00,
2013-02-15 23:45:00,56.0,44.8,30.28,North,9,7.0,7.0,66,0.00,,,0.00,Wunderground v.1.15,2013-02-16 05:45:00,
2013-02-15 23:50:00,56.0,45.2,30.28,North,5,6.0,6.0,67,0.00,,,0.00,Wunderground v.1.15,2013-02-16 05:50:00,
2013-02-15 23:55:00,55.9,45.1,30.28,ENE,63,7.0,10.0,67,0.00,,,0.00,Wunderground v.1.15,2013-02-16 05:55:00,